Weather reports worldwide

Advertisment
Shoreham Airport, United Kingdom (3876): temperature & dewpoint: 19.11.2020 00:00:00 - 25.11.2020 00:00:00 (GMT)Shoreham Airport, United Kingdom (3876): wind speed & gusts: 19.11.2020 00:00:00 - 25.11.2020 00:00:00 (GMT)Shoreham Airport, United Kingdom (3876): wind direction: 19.11.2020 00:00:00 - 25.11.2020 00:00:00 (GMT)Shoreham Airport, United Kingdom (3876): reduced air pressure: 19.11.2020 00:00:00 - 25.11.2020 00:00:00 (GMT)Shoreham Airport, United Kingdom (3876): visibility: 19.11.2020 00:00:00 - 25.11.2020 00:00:00 (GMT)Shoreham Airport, United Kingdom (3876): precipitation: 19.11.2020 00:00:00 - 25.11.2020 00:00:00 (GMT)
Date & Time tt [°C] td [°C] ff [km/h] ff [kn] fx [km/h] fx [kn] dd ppp [hPa] vv [km] rr [mm]
25.11.2020 00:00:00 - - - - - - - - - -
24.11.2020 23:00:00 11,5 8,8 24 13 - - S 1012,0 - 0,0
24.11.2020 22:00:00 11,5 8,9 21 11 - - S 1012,5 - 0,0
24.11.2020 21:00:00 11,5 8,4 21 11 - - S 1012,9 - 0,0
24.11.2020 20:00:00 11,4 8,8 16 9 - - S 1013,4 - 0,0
24.11.2020 19:00:00 11,5 8,8 22 12 - - SSE 1013,6 10 0,0
24.11.2020 18:00:00 11,3 9,1 18 10 - - SSE 1014,1 10 0,0
24.11.2020 17:00:00 11,1 9,0 16 9 - - SSE 1014,5 10 0,0
24.11.2020 16:00:00 10,9 8,2 21 11 - - SSE 1014,7 10 0,0
24.11.2020 15:00:00 11,5 8,9 18 10 - - S 1015,4 10 0,0
24.11.2020 14:00:00 11,7 8,7 21 11 - - S 1016,4 10 0,0
24.11.2020 13:00:00 11,1 8,8 16 9 - - S 1017,3 10 0,0
24.11.2020 12:00:00 11,3 8,2 18 10 - - S 1018,3 10 0,0
24.11.2020 11:00:00 11,2 7,7 21 11 - - S 1019,4 - 0,0
24.11.2020 10:00:00 11,0 7,4 24 13 - - S 1019,8 10 0,0
24.11.2020 09:00:00 10,9 7,2 28 15 - - S 1019,9 10 0,0
24.11.2020 08:00:00 10,9 8,1 26 14 - - S 1020,3 10 0,0
24.11.2020 07:00:00 11,2 7,7 26 14 - - S 1020,4 - 0,0
24.11.2020 06:00:00 11,3 7,7 24 13 - - SSW 1021,1 - 0,0
24.11.2020 05:00:00 11,5 8,7 24 13 - - SSW 1021,5 - 0,0
24.11.2020 04:00:00 11,7 9,4 22 12 - - SSW 1021,9 - 0,0
24.11.2020 03:00:00 11,9 9,7 26 14 - - SSW 1022,6 - 0,0
24.11.2020 02:00:00 12,0 10,6 28 15 - - SSW 1023,0 - 0,0
24.11.2020 01:00:00 12,1 10,6 22 12 - - SSW 1023,8 - 0,0
24.11.2020 00:00:00 11,9 10,3 15 8 - - SSW 1024,3 - 0,0
23.11.2020 23:00:00 11,8 10,1 21 11 - - SW 1024,7 - 0,0
23.11.2020 22:00:00 11,8 9,8 22 12 - - SSW 1025,1 - 0,0
23.11.2020 21:00:00 11,8 9,6 21 11 - - SSW 1025,4 - 0,0
23.11.2020 20:00:00 11,0 9,4 16 9 - - SSW 1025,8 - 0,0
23.11.2020 19:00:00 11,6 9,2 22 12 - - SSW 1025,9 - 0,0
23.11.2020 18:00:00 11,3 8,9 18 10 - - S 1026,4 10 0,0
23.11.2020 17:00:00 10,9 8,3 15 8 - - S 1026,7 - 0,0
23.11.2020 16:00:00 10,7 7,7 15 8 - - S 1026,9 10 0,0
23.11.2020 15:00:00 10,8 7,6 15 8 - - S 1027,0 10 0,0
23.11.2020 14:00:00 11,4 7,5 15 8 - - SSW 1027,2 10 0,0
23.11.2020 13:00:00 11,1 6,0 11 6 - - S 1027,8 10 0,0
23.11.2020 12:00:00 10,8 7,6 8 4 - - SE 1028,3 10 0,0
23.11.2020 11:00:00 8,8 7,4 2 1 - - SW 1028,8 10 0,0
23.11.2020 10:00:00 7,1 6,3 5 3 - - N 1029,1 10 0,0
23.11.2020 09:00:00 5,9 5,5 5 3 - - N 1028,8 10 0,0
23.11.2020 08:00:00 5,3 4,9 9 5 - - N 1028,5 10 0,0
23.11.2020 07:00:00 5,3 4,9 4 2 - - N 1028,1 - 0,0
23.11.2020 06:00:00 5,5 4,8 11 6 - - N 1028,0 - 0,0
23.11.2020 05:00:00 6,2 5,6 9 5 - - N 1028,1 - 0,0
23.11.2020 04:00:00 5,2 4,6 4 2 - - N 1028,0 - 0,0
23.11.2020 03:00:00 5,0 4,0 0 0 - - N 1027,9 - 0,0
23.11.2020 02:00:00 7,2 6,2 5 3 - - N 1027,9 - 0,0
23.11.2020 01:00:00 8,2 6,6 5 3 - - NNW 1028,2 - 0,0
23.11.2020 00:00:00 8,3 6,8 5 3 - - NW 1028,2 - 0,0
22.11.2020 23:00:00 8,5 6,6 5 3 - - NNW 1027,9 - 0,0
22.11.2020 22:00:00 8,8 6,4 4 2 - - N 1028,0 - 0,0
22.11.2020 21:00:00 9,1 6,1 5 3 - - NW 1027,7 - 0,0
22.11.2020 20:00:00 9,7 6,1 9 5 - - WNW 1027,7 - 0,0
22.11.2020 19:00:00 9,7 6,3 9 5 - - W 1027,5 - 0,0
22.11.2020 18:00:00 10,3 6,0 13 7 - - WNW 1027,2 - 0,0
22.11.2020 17:00:00 10,3 7,6 5 3 - - N 1026,7 - 0,0
22.11.2020 16:00:00 10,8 6,9 5 3 - - WNW 1026,4 10 0,0
22.11.2020 15:00:00 11,7 7,0 8 4 - - W 1026,3 10 0,0
22.11.2020 14:00:00 12,0 8,1 9 5 - - NW 1026,7 10 0,0
22.11.2020 13:00:00 12,3 7,4 11 6 - - NW 1026,9 10 0,0
22.11.2020 12:00:00 11,8 9,3 11 6 - - NNW 1027,2 10 0,0
22.11.2020 11:00:00 12,1 10,0 9 5 - - NW 1027,3 10 0,0
22.11.2020 10:00:00 12,0 10,4 11 6 - - WNW 1027,3 10 0,0
22.11.2020 09:00:00 11,1 10,1 9 5 - - WNW 1026,9 10 0,0
22.11.2020 08:00:00 11,0 10,6 9 5 - - W 1026,8 - 0,0
22.11.2020 07:00:00 11,1 10,7 13 7 - - WSW 1026,4 - 0,0
22.11.2020 06:00:00 11,2 10,9 13 7 - - WSW 1026,2 - 0,0
22.11.2020 05:00:00 11,1 10,6 9 5 - - WSW 1026,2 - 0,0
22.11.2020 04:00:00 11,5 10,3 16 9 - - WSW 1026,1 - 0,0
22.11.2020 03:00:00 11,3 10,3 16 9 - - WSW 1026,2 - 0,0
22.11.2020 02:00:00 11,6 9,5 22 12 - - WSW 1026,1 - 0,0
22.11.2020 01:00:00 11,7 10,0 22 12 - - WSW 1026,0 - 0,0
22.11.2020 00:00:00 11,7 10,6 18 10 - - WSW 1026,1 - 0,0
21.11.2020 23:00:00 11,7 10,5 16 9 - - SW 1026,3 - 0,0
21.11.2020 22:00:00 11,6 9,9 15 8 - - WSW 1026,8 - 0,0
21.11.2020 21:00:00 11,6 9,8 15 8 - - WSW 1027,1 - 0,0
21.11.2020 20:00:00 11,6 9,9 16 9 - - W 1027,4 - 0,0
21.11.2020 19:00:00 12,0 9,6 18 10 - - WSW 1027,1 - 0,0
21.11.2020 18:00:00 12,1 9,3 18 10 - - WSW 1027,2 10 0,0
21.11.2020 17:00:00 12,1 8,8 21 11 - - WSW 1027,2 10 0,0
21.11.2020 16:00:00 11,8 9,0 24 13 - - WSW 1027,3 10 0,0
21.11.2020 15:00:00 11,8 9,1 22 12 - - WSW 1027,2 10 0,0
21.11.2020 14:00:00 12,5 8,6 24 13 - - WSW 1027,3 10 0,0
21.11.2020 13:00:00 12,6 8,3 28 15 50 27 WSW 1027,9 10 0,0
21.11.2020 12:00:00 12,6 8,6 28 15 - - WSW 1028,1 10 0,0
21.11.2020 11:00:00 12,5 8,8 24 13 - - SW 1028,5 10 0,0
21.11.2020 10:00:00 12,2 9,7 28 15 - - SW 1028,6 10 0,0
21.11.2020 09:00:00 11,7 9,1 24 13 - - SW 1028,5 10 0,0
21.11.2020 08:00:00 11,0 9,3 24 13 - - WSW 1028,8 - 0,0
21.11.2020 07:00:00 10,9 9,7 24 13 - - SW 1029,0 - 0,0
21.11.2020 06:00:00 11,2 9,4 18 10 - - SW 1029,0 - 0,0
21.11.2020 05:00:00 11,6 8,8 22 12 46 25 WSW 1028,9 - 0,0
21.11.2020 04:00:00 11,3 8,9 24 13 - - WSW 1029,0 - 0,0
21.11.2020 03:00:00 11,4 9,0 22 12 - - WSW 1029,0 - 0,0
21.11.2020 02:00:00 11,4 8,7 18 10 - - SW 1029,4 - 0,0
21.11.2020 01:00:00 11,7 9,1 22 12 - - WSW 1029,8 - 0,0
21.11.2020 00:00:00 11,0 10,0 21 11 - - SW 1030,3 - 0,0
20.11.2020 23:00:00 11,1 10,4 24 13 46 25 WSW 1030,7 - 0,0
20.11.2020 22:00:00 11,0 10,6 24 13 - - SW 1031,1 - 0,2
20.11.2020 21:00:00 10,9 10,6 22 12 - - WSW 1031,5 - 0,4
20.11.2020 20:00:00 10,8 10,5 21 11 - - SW 1031,6 - 0,2
20.11.2020 19:00:00 10,8 10,5 18 10 - - SW 1031,8 10 0,2
20.11.2020 18:00:00 10,5 9,9 21 11 - - SW 1032,2 10 0,4
20.11.2020 17:00:00 10,6 9,4 18 10 - - SW 1032,3 10 0,0
20.11.2020 16:00:00 10,4 10,1 26 14 - - SSW 1032,5 8 0,0
20.11.2020 15:00:00 10,1 9,7 26 14 - - SSW 1032,9 4,0 0,2
20.11.2020 14:00:00 9,8 8,4 21 11 - - SSW 1033,6 7 0,4
20.11.2020 13:00:00 9,6 7,3 22 12 - - SSW 1034,3 10 0,2
20.11.2020 12:00:00 9,6 7,0 16 9 - - SSW 1034,9 10 0,2
20.11.2020 11:00:00 8,8 6,2 9 5 - - ESE 1035,4 10 0,0
20.11.2020 10:00:00 6,6 5,4 4 2 - - ENE 1035,8 10 0,0
20.11.2020 09:00:00 2,5 2,5 2 1 - - E 1035,5 10 0,0
20.11.2020 08:00:00 0,7 0,6 4 2 - - E 1035,8 - 0,0
20.11.2020 07:00:00 -0,1 -0,3 2 1 - - NNW 1035,3 - 0,0
20.11.2020 06:00:00 0,3 0,1 4 2 - - N 1035,4 - 0,0
20.11.2020 05:00:00 -0,3 -0,6 8 4 - - N 1035,7 - 0,0
20.11.2020 04:00:00 0,1 -0,3 2 1 - - NE 1035,6 - 0,0
20.11.2020 03:00:00 0,3 -0,4 2 1 - - N 1035,9 - 0,0
20.11.2020 02:00:00 1,2 0,4 4 2 - - NNE 1036,4 - 0,0
20.11.2020 01:00:00 2,0 1,0 8 4 - - NNW 1036,4 - 0,0
20.11.2020 00:00:00 2,9 0,4 2 1 - - NNW 1036,0 - 0,0
19.11.2020 23:00:00 4,2 1,9 8 4 - - NNW 1036,4 - 0,0
19.11.2020 22:00:00 5,2 2,4 16 9 - - NW 1036,3 - 0,0
19.11.2020 21:00:00 5,0 2,2 9 5 - - WNW 1035,0 - 0,0
19.11.2020 20:00:00 4,8 2,8 5 3 - - NNW 1034,3 10 0,0
19.11.2020 19:00:00 5,2 2,2 9 5 - - NNW 1033,6 10 0,0
19.11.2020 18:00:00 6,4 3,8 13 7 - - NW 1034,0 10 0,0
19.11.2020 17:00:00 6,4 4,0 11 6 - - WNW 1033,4 10 0,0
19.11.2020 16:00:00 7,4 5,0 15 8 - - WNW 1032,2 10 0,0
19.11.2020 15:00:00 8,4 5,8 24 13 50 27 N 1029,7 10 0,0
19.11.2020 14:00:00 9,7 5,7 28 15 52 28 NW 1029,5 10 0,0
19.11.2020 13:00:00 10,6 5,2 28 15 - - WNW 1028,3 10 0,0
19.11.2020 12:00:00 10,8 5,8 28 15 - - WNW 1027,0 10 0,0
19.11.2020 11:00:00 10,6 6,0 26 14 46 25 WNW 1026,3 10 0,0
19.11.2020 10:00:00 10,2 5,6 21 11 - - W 1025,3 10 0,0
19.11.2020 09:00:00 9,7 4,9 18 10 - - W 1024,3 - 0,0
19.11.2020 08:00:00 9,6 4,3 24 13 - - W 1023,0 - 0,0
19.11.2020 07:00:00 9,4 4,9 16 9 - - W 1021,8 - 0,0
19.11.2020 06:00:00 9,6 5,2 29 16 - - W 1020,9 - 0,0
19.11.2020 05:00:00 10,3 5,8 31 17 52 28 W 1020,5 - 0,0
19.11.2020 04:00:00 10,0 5,6 34 18 50 27 W 1019,8 - 0,0
19.11.2020 03:00:00 10,3 5,5 29 16 52 28 W 1019,6 - 0,0
19.11.2020 02:00:00 9,9 5,3 34 18 57 31 WSW 1019,4 - 0,0
19.11.2020 01:00:00 9,3 5,1 26 14 46 25 WSW 1019,8 - 0,0
19.11.2020 00:00:00 9,4 4,7 28 15 - - WSW 1020,1 - 0,0

tt = temperature
td = dewpoint
ff = wind speed
fx = gusts
dd = wind direction
ppp = reduced air pressure
vv = visibility
rr = precipitation

Next stations